Red Bluff, CA

11:36 PM PST on November 14, 2019 (GMT -0800)
Red Bluff Municipal

Weather History for KRBL - September, 2019

Change the Weather History Date:

Friday, September 13, 2019

  Actual Average Record
Temperature  
Mean Temperature 78 °F -  
Max Temperature 98 °F 90 °F 111 °F (1971)
Min Temperature 59 °F 59 °F 46 °F (1936)
Cooling Degree Days 14    
Growing Degree Days 28 (Base 50)    
Moisture  
Dew Point 42 °F    
Average Humidity 28    
Maximum Humidity 48    
Minimum Humidity 8    
Precipitation  
Precipitation 0.00 in - - ()
Sea Level Pressure  
Sea Level Pressure 29.95 in    
Wind  
Wind Speed 6 mph (NE)    
Max Wind Speed 9 mph    
Max Gust Speed -    
Visibility 10 miles    
Events      
Averages and records for this station are not official NWS values.
T = Trace of Precipitation, MM = Missing Value Source: NWS Daily Summary

Daily Weather History Graph

Daily Weather History Graph

Search for Another Location

Airport or City:

Astronomy

Sep. 13, 2019 Rise Set
Actual Time 6:47 AM PDT 7:21 PM PDT
Civil Twilight 6:20 AM PDT 7:48 PM PDT
Nautical Twilight 5:48 AM PDT 8:20 PM PDT
Astronomical Twilight 5:15 AM PDT 8:53 PM PDT
Moon 7:37 PM PDT (9/13) 6:09 AM PDT (9/13)
Length of Visible Light 13h 27m
Length of Day
12h 33m
Full, 100% of the Moon is Illuminated
Sep 13
Full
Sep 13
Full
Sep 21
Last Quarter
Sep 28
New
Oct 5
First Quarter

Hourly Weather History & Observations

Time (PDT) Temp. Dew Point Humidity Pressure Visibility Wind Dir Wind Speed Gust Speed Precip Events Conditions
12:54 AM 66.0 °F 39.0 °F 37% 29.99 in 10.0 mi NW 6.9 mph - N/A   Clear
1:54 AM 66.9 °F 37.9 °F 34% 29.99 in 10.0 mi NW 6.9 mph - N/A   Clear
2:54 AM 66.0 °F 39.0 °F 37% 29.99 in 10.0 mi NW 3.5 mph - N/A   Clear
4:54 AM 62.1 °F 39.9 °F 44% 29.98 in 10.0 mi NNW 8.1 mph - N/A   Clear
5:54 AM 61.0 °F 39.0 °F 44% 29.99 in 10.0 mi NW 5.8 mph - N/A   Clear
6:54 AM 62.1 °F 39.0 °F 43% 29.99 in 10.0 mi NW 5.8 mph - N/A   Clear
7:54 AM 66.9 °F 41.0 °F 39% 30.01 in 10.0 mi North 4.6 mph - N/A   Clear
8:54 AM 75.9 °F 42.1 °F 30% 30.01 in 10.0 mi North 8.1 mph - N/A   Clear
9:54 AM 79.0 °F 44.1 °F 29% 30.02 in 10.0 mi NNE 3.5 mph - N/A   Clear
10:54 AM 84.9 °F 39.9 °F 20% 30.01 in 10.0 mi ENE 6.9 mph - N/A   Clear
11:54 AM 87.1 °F 42.1 °F 21% 29.99 in 10.0 mi East 5.8 mph - N/A   Clear
12:54 PM 93.0 °F 41.0 °F 16% 29.98 in 10.0 mi ENE 4.6 mph - N/A   Clear
1:54 PM 93.9 °F 39.9 °F 15% 29.95 in 10.0 mi ESE 6.9 mph - N/A   Clear
2:54 PM 95.0 °F 39.0 °F 14% 29.93 in 10.0 mi South 5.8 mph - N/A   Clear
3:54 PM 98.1 °F 42.1 °F 15% 29.91 in 10.0 mi SE 6.9 mph - N/A   Clear
4:54 PM 97.0 °F 41.0 °F 14% 29.90 in 10.0 mi SE 8.1 mph - N/A   Clear
5:54 PM 96.1 °F 44.1 °F 17% 29.89 in 10.0 mi SSE 9.2 mph - N/A   Clear
6:54 PM 91.0 °F 44.1 °F 20% 29.88 in 10.0 mi SSE 8.1 mph - N/A   Clear
7:54 PM 82.9 °F 46.0 °F 27% 29.89 in 10.0 mi SE 3.5 mph - N/A   Clear
8:54 PM 79.0 °F 50.0 °F 36% 29.91 in 10.0 mi Calm Calm - N/A   Clear
9:54 PM 72.0 °F 50.0 °F 46% 29.92 in 10.0 mi Calm Calm - N/A   Clear
10:54 PM 71.1 °F 48.9 °F 45% 29.92 in 10.0 mi Calm Calm - N/A   Clear
11:54 PM 66.0 °F 46.0 °F 48% 29.91 in 10.0 mi WNW 3.5 mph - N/A   Clear